Wind_Speed
10 9 9 8 8 9 10 11 12 13 13 11 10 9 10 11 10 10 10 10 10 12 14 13 12 11 9 9 14 15 17 23 21 18 21 21 25 26 26 26 27 27 26
10 11 13 16 17 17 17 16 14 13 13 12 12 13 14 16 16 16 16 16 14 14 14 14 12 11 10 8 10 14 17 20 22 21 22 22 24 27 26 27 27 27 26
20 22 21 20 19 15 14 13 14 15 16 16 16 19 21 23 23 23 21 22 19 17 17 14 14 15 12 10 12 15 18 20 22 24 25 23 23 25 26 26 26 27 26
26 27 24 21 18 16 14 14 17 18 20 21 23 26 29 29 26 39 26 17 13 16 17 16 16 15 14 15 17 19 21 24 24 24 25 25 23 22 25 25 26 24 25
35 32 24 19 13 17 15 19 21 19 24 26 28 28 33 36 39 28 30 21 21 20 22 21 19 18 19 21 22 23 27 28 30 28 28 27 24 22 24 25 26 23 24
29 25 22 18 21 22 23 19 24 25 34 39 38 39 31 38 32 35 29 28 25 21 23 23 22 23 25 25 27 27 28 33 33 33 35 29 25 22 22 23 24 22 23
30 30 30 32 27 29 27 30 31 32 33 40 41 49 48 42 38 32 27 27 25 27 28 30 31 32 36 37 34 34 34 37 37 37 38 33 25 24 22 21 24 22 23
36 37 36 30 24 25 36 39 41 38 39 41 40 44 41 32 33 33 32 33 34 37 41 42 43 44 44 44 43 43 43 42 40 39 38 33 27 25 22 20 24 21 22
23 14 11 10 11 13 14 16 21 26 30 33 36 34 34 34 35 37 40 43 45 46 46 46 47 48 48 47 47 48 47 45 41 38 35 32 26 25 23 21 21 20 20
14 14 13 13 14 15 16 19 21 23 25 27 29 33 36 38 41 45 47 50 52 54 55 56 56 56 57 55 53 51 50 44 40 36 34 31 26 25 23 21 23 19 17
14 14 15 16 17 19 21 23 26 29 32 36 39 41 44 46 48 49 51 52 55 57 58 55 53 54 53 52 50 47 47 43 39 36 33 30 26 25 22 21 24 18 16
17 17 19 20 22 24 26 29 32 35 36 37 39 40 41 43 44 44 45 46 48 49 50 49 48 48 47 46 42 41 40 40 37 34 32 31 26 25 22 19 25 18 18
21 22 23 25 27 29 30 31 32 33 34 34 36 37 37 38 38 40 43 44 45 46 47 48 47 45 45 43 35 29 25 21 23 27 27 31 23 23 23 24 27 20 22
25 26 27 29 31 33 34 33 33 31 31 32 33 36 37 38 38 39 40 41 42 43 44 45 46 46 44 42 35 27 26 28 30 30 29 30 27 25 28 26 26 23 24
29 30 32 34 35 34 35 34 33 33 35 37 37 37 38 37 36 37 37 37 39 39 41 42 44 46 45 43 40 36 34 34 30 29 30 32 30 31 30 27 27 25 24
31 32 33 33 34 35 35 34 35 37 37 36 36 37 35 35 35 35 35 35 36 35 32 31 32 34 37 40 41 42 40 37 29 29 30 34 32 30 33 29 26 25 25
30 31 32 33 33 34 35 37 37 34 37 35 34 33 34 35 35 36 36 35 32 32 32 29 29 29 29 32 35 39 43 38 35 34 31 33 37 36 37 30 28 26 27
29 30 32 33 34 35 36 37 37 38 36 31 30 30 30 33 35 34 33 33 31 30 31 31 30 28 28 28 29 29 30 28 28 29 32 32 37 39 38 33 34 32 28
28 30 30 31 31 32 33 34 34 34 35 34 29 23 28 31 31 31 31 31 31 30 32 35 34 32 31 31 29 27 27 27 26 30 33 33 33 38 39 46 41 35 33
27 29 30 30 30 29 30 31 32 31 30 29 27 25 23 28 29 29 30 32 34 33 32 32 31 31 31 31 32 32 30 28 28 31 31 32 34 36 46 34 43 34 42
25 27 29 29 29 29 29 29 30 31 32 30 28 27 29 32 31 30 30 30 30 32 31 31 32 29 30 30 28 34 32 26 28 31 32 29 32 36 34 38 39 45 46
23 23 25 27 28 28 28 28 28 29 31 33 31 29 30 32 33 32 31 31 32 34 34 34 32 29 28 29 30 33 33 30 29 29 31 31 29 30 36 47 35 40 48
21 22 22 24 27 28 27 26 25 26 28 27 29 31 31 32 31 31 31 29 29 27 27 28 29 27 27 27 25 30 32 25 27 26 28 32 33 31 32 38 35 37 27
21 20 21 24 26 25 25 24 24 27 30 32 32 32 31 29 29 31 30 29 28 26 27 26 24 25 24 23 22 25 29 28 31 31 31 31 33 33 33 39 29 34 40
20 16 21 23 23 25 27 28 30 32 35 35 34 30 25 22 24 26 27 27 27 28 27 23 25 28 27 25 29 24 24 30 33 33 36 34 30 31 36 35 33 27 29
19 17 17 18 18 22 26 31 35 34 35 30 24 16 20 22 20 21 21 20 18 19 19 18 17 24 29 30 31 30 27 27 30 32 33 35 33 32 37 37 35 31 30
Wind_Direction
225 222 228 230 223 207 205 207 205 206 207 211 225 242 249 257 261 264 267 277 288 295 302 306 306 311 312 325 346 339 326 327 335 312 342 330 335 338 340 331 329 333 332
212 227 227 225 222 215 209 210 209 212 221 232 244 253 253 256 253 256 259 265 271 278 280 290 288 291 296 317 335 346 346 346 335 324 321 323 329 332 336 331 328 331 330
222 227 227 228 227 225 228 227 227 234 242 249 256 262 265 265 266 260 259 266 274 277 278 273 278 282 283 307 324 332 334 335 341 343 327 320 320 325 328 332 327 328 329
235 237 239 244 250 254 250 256 268 264 260 263 264 269 271 271 284 263 330 276 284 295 291 276 279 269 281 294 308 316 323 326 330 336 336 322 315 319 319 327 326 327 326
236 240 236 229 233 254 245 257 271 290 296 291 282 284 280 286 278 287 284 280 277 280 280 280 272 271 279 288 297 304 311 315 318 324 326 327 315 312 313 319 323 325 321
242 245 242 254 275 249 256 266 270 274 279 269 275 279 285 266 262 273 271 275 279 279 279 278 274 277 279 283 287 291 299 306 309 314 316 321 314 308 305 312 319 323 316
244 254 256 273 260 257 257 254 259 263 261 263 267 270 281 268 276 282 287 287 282 282 282 282 281 283 286 287 286 289 293 299 301 304 307 311 307 300 297 307 314 318 313
260 265 271 274 270 260 252 253 252 264 262 271 271 269 273 269 274 276 277 278 279 282 284 283 282 283 284 284 284 285 288 291 294 295 295 297 299 290 294 299 307 312 309
262 259 257 258 260 261 263 262 259 259 261 265 266 267 269 269 269 270 274 273 276 280 280 281 282 283 284 283 284 284 286 289 289 290 292 290 292 286 288 289 299 300 303
248 258 264 268 272 272 273 274 272 268 265 266 271 273 273 271 270 272 274 278 281 282 282 283 285 285 284 283 283 283 284 284 283 283 280 281 284 278 277 284 289 294 294
253 259 264 265 265 266 268 269 269 271 272 271 271 272 273 275 277 279 281 282 283 282 282 283 282 283 282 281 283 284 283 283 278 275 272 274 275 272 270 275 284 282 283
265 268 268 271 273 275 276 278 277 275 274 273 274 274 275 277 280 282 282 281 280 280 280 280 280 280 280 281 285 284 284 283 275 267 261 261 267 262 270 272 272 264 264
274 277 279 281 283 286 285 283 282 283 283 281 278 277 277 280 282 283 283 281 279 279 280 281 279 278 278 278 279 281 284 284 293 265 259 251 249 258 248 259 266 260 259
277 280 284 287 288 287 286 286 287 287 288 289 288 286 283 282 285 285 284 282 279 279 278 279 280 279 277 277 273 263 262 276 287 282 265 253 240 238 244 246 263 256 253
286 288 289 288 288 287 287 287 288 291 294 294 293 291 289 288 286 286 286 284 285 284 281 279 276 276 277 278 276 271 264 267 273 274 267 250 247 228 238 244 256 251 245
286 287 287 286 287 287 287 286 289 292 294 295 294 293 293 293 291 289 288 288 289 288 284 280 278 277 276 273 272 274 274 270 265 264 263 256 246 229 233 243 250 252 243
287 287 287 288 288 289 290 291 291 291 293 293 292 294 295 293 289 289 292 293 292 289 286 284 280 278 282 282 279 275 275 276 274 268 253 250 248 238 233 231 241 251 240
288 289 289 291 292 292 293 293 295 295 294 290 291 292 288 285 287 291 293 293 293 292 289 284 281 284 284 282 276 275 275 278 270 257 251 244 242 240 238 232 231 241 237
292 292 294 295 296 297 298 298 297 296 296 296 293 284 283 284 286 288 289 289 289 289 288 287 285 281 277 276 277 273 270 273 262 248 244 245 239 238 237 228 223 232 238
295 295 297 299 300 300 300 301 301 300 298 294 292 290 279 276 280 282 283 284 283 284 283 282 282 282 281 278 267 268 267 258 251 241 241 242 244 236 232 244 225 243 234
295 297 299 302 303 305 304 301 300 301 302 299 294 291 288 287 284 286 286 290 291 278 284 285 277 276 274 275 268 262 261 258 255 248 244 240 243 245 244 239 235 234 231
299 300 305 310 316 315 311 306 300 298 296 295 297 293 288 287 289 290 291 292 291 284 284 284 275 274 272 273 272 260 255 266 255 253 244 243 242 243 240 231 252 228 227
312 312 317 324 323 323 318 314 312 308 306 304 302 299 289 284 283 289 296 295 292 291 291 286 276 275 268 267 270 266 255 243 245 247 239 243 242 240 242 239 255 249 231
314 321 325 327 329 328 324 318 312 309 308 307 305 307 300 296 287 287 291 291 291 292 294 287 276 272 265 264 269 263 250 243 246 242 240 246 241 240 244 240 257 253 215
315 312 308 311 322 329 325 320 316 313 310 305 304 307 312 306 301 295 293 292 288 291 291 291 264 268 262 267 260 263 268 255 250 243 242 246 250 242 236 238 240 244 239
308 307 309 312 315 318 328 334 324 315 321 312 301 308 309 312 315 309 303 299 308 301 288 296 290 264 270 267 261 258 263 264 254 245 243 245 248 242 237 236 239 242 236
Height
3194 3195 3196 3196 3196 3196 3197 3198 3198 3199 3200 3201 3202 3202 3202 3203 3202 3202 3203 3203 3202 3200 3199 3196 3195 3193 3192 3189 3187 3186 3182 3178 3173 3171 3166 3163 3160 3157 3153 3147 3141 3135 3131
3192 3192 3192 3192 3191 3192 3192 3195 3197 3198 3199 3200 3201 3201 3199 3200 3196 3197 3198 3197 3195 3193 3193 3190 3189 3187 3187 3186 3184 3182 3178 3174 3171 3167 3163 3160 3157 3153 3149 3145 3138 3132 3128
3187 3185 3186 3186 3189 3189 3190 3193 3195 3197 3198 3197 3197 3196 3194 3193 3193 3189 3186 3191 3191 3187 3185 3186 3185 3184 3183 3181 3180 3178 3175 3172 3167 3164 3160 3157 3154 3150 3146 3142 3136 3130 3125
3181 3182 3184 3186 3188 3191 3191 3191 3195 3194 3193 3193 3191 3190 3188 3187 3187 3177 3146 3153 3175 3179 3176 3180 3180 3179 3177 3176 3175 3173 3171 3168 3163 3160 3157 3153 3150 3146 3143 3138 3133 3128 3123
3174 3175 3176 3177 3182 3186 3186 3186 3187 3191 3190 3188 3187 3185 3185 3180 3186 3184 3179 3175 3173 3172 3173 3174 3174 3174 3172 3170 3167 3167 3165 3162 3159 3154 3152 3149 3145 3142 3138 3135 3131 3126 3121
3173 3168 3163 3160 3174 3175 3180 3181 3182 3179 3179 3178 3175 3174 3172 3172 3170 3172 3173 3171 3166 3165 3166 3167 3167 3166 3165 3163 3161 3159 3158 3154 3151 3148 3145 3143 3140 3137 3133 3131 3127 3122 3119
3167 3169 3169 3168 3172 3172 3172 3171 3167 3169 3171 3170 3167 3165 3164 3164 3163 3159 3157 3157 3158 3160 3160 3159 3159 3158 3156 3154 3154 3151 3149 3148 3144 3142 3137 3136 3134 3131 3128 3127 3122 3118 3115
3163 3162 3162 3161 3163 3162 3162 3162 3161 3160 3160 3159 3159 3157 3156 3156 3156 3155 3153 3152 3152 3152 3152 3150 3148 3148 3146 3143 3142 3141 3140 3139 3136 3133 3130 3128 3127 3125 3123 3121 3117 3114 3111
3160 3160 3158 3157 3156 3156 3156 3154 3154 3154 3153 3152 3152 3150 3149 3150 3150 3150 3147 3144 3143 3143 3141 3138 3136 3133 3133 3132 3129 3127 3127 3127 3126 3123 3122 3120 3119 3117 3115 3114 3112 3110 3108
3157 3157 3155 3154 3152 3150 3150 3149 3148 3146 3146 3145 3145 3143 3141 3141 3141 3139 3136 3133 3132 3130 3129 3127 3124 3121 3119 3118 3117 3114 3112 3115 3114 3112 3111 3110 3110 3109 3108 3108 3107 3105 3104
3154 3151 3151 3150 3148 3146 3145 3144 3142 3140 3138 3136 3135 3134 3132 3130 3128 3126 3124 3121 3117 3115 3113 3113 3111 3106 3105 3105 3104 3103 3100 3101 3102 3101 3101 3101 3101 3101 3101 3102 3100 3099 3100
3148 3144 3145 3144 3141 3140 3138 3136 3133 3130 3128 3126 3123 3122 3121 3119 3116 3114 3112 3110 3106 3102 3099 3098 3097 3095 3093 3092 3093 3091 3089 3088 3088 3089 3090 3091 3093 3094 3095 3095 3094 3093 3095
3139 3137 3136 3134 3132 3129 3128 3126 3123 3119 3117 3115 3113 3111 3110 3108 3107 3103 3099 3097 3094 3090 3087 3083 3082 3082 3081 3082 3083 3082 3081 3079 3078 3079 3080 3082 3085 3088 3087 3088 3087 3088 3089
3132 3129 3126 3124 3121 3120 3117 3114 3112 3110 3107 3104 3102 3100 3099 3098 3095 3092 3088 3084 3082 3080 3077 3074 3072 3070 3069 3068 3071 3073 3073 3072 3071 3072 3072 3072 3075 3076 3079 3080 3080 3082 3083
3123 3119 3116 3114 3111 3110 3107 3104 3101 3099 3096 3093 3091 3088 3085 3085 3082 3079 3076 3073 3070 3068 3064 3062 3060 3058 3056 3057 3059 3061 3063 3063 3064 3063 3062 3063 3064 3067 3071 3073 3074 3075 3077
3113 3110 3106 3104 3102 3100 3096 3095 3091 3088 3085 3081 3078 3075 3074 3070 3067 3065 3063 3061 3059 3056 3054 3051 3049 3047 3046 3045 3046 3047 3049 3051 3054 3053 3053 3052 3054 3058 3061 3065 3066 3068 3071
3103 3100 3097 3094 3092 3089 3085 3081 3080 3079 3073 3071 3068 3064 3061 3058 3055 3053 3050 3049 3048 3046 3043 3042 3040 3039 3038 3036 3035 3036 3036 3040 3042 3041 3041 3043 3045 3048 3052 3055 3058 3061 3064
3094 3091 3087 3084 3081 3077 3074 3070 3067 3063 3062 3062 3058 3055 3053 3049 3045 3042 3040 3038 3037 3034 3033 3032 3031 3031 3029 3028 3027 3026 3026 3027 3028 3028 3030 3031 3034 3038 3041 3045 3049 3053 3055
3085 3081 3077 3074 3070 3067 3063 3059 3056 3053 3049 3046 3046 3048 3043 3039 3037 3035 3033 3030 3027 3025 3023 3022 3021 3020 3018 3018 3017 3016 3016 3017 3017 3018 3018 3020 3022 3027 3031 3032 3033 3044 3049
3075 3071 3067 3064 3061 3058 3054 3050 3046 3043 3040 3037 3036 3035 3034 3031 3029 3027 3025 3021 3019 3016 3014 3012 3010 3009 3008 3007 3007 3006 3006 3006 3007 3009 3009 3010 3012 3015 3020 3019 3026 3031 3039
3066 3063 3060 3057 3053 3049 3045 3041 3037 3034 3031 3029 3027 3026 3022 3019 3018 3017 3014 3012 3007 3005 3003 3001 2999 2999 2998 2997 2996 2996 2997 2999 3000 3002 3003 3002 3004 3005 3008 3014 3017 3021 3027
3058 3055 3052 3049 3044 3040 3036 3033 3029 3026 3022 3019 3017 3015 3012 3010 3007 3004 3003 3000 2997 2994 2991 2988 2987 2987 2987 2986 2985 2984 2986 2989 2991 2992 2994 2995 2995 2997 2998 3002 3003 3007 3015
3051 3048 3045 3041 3037 3033 3029 3025 3021 3018 3014 3010 3007 3003 3002 2999 2997 2994 2991 2988 2986 2983 2980 2977 2974 2976 2976 2975 2974 2974 2975 2977 2980 2981 2982 2985 2987 2989 2990 2993 2995 2997 2991
3045 3042 3039 3036 3033 3029 3024 3021 3017 3012 3007 3003 2999 2995 2991 2988 2985 2983 2981 2978 2975 2973 2970 2967 2966 2965 2966 2966 2965 2965 2967 2969 2970 2972 2972 2975 2977 2980 2982 2984 2987 2993 2995
3040 3038 3035 3032 3028 3025 3020 3015 3009 3004 2999 2994 2990 2986 2982 2979 2976 2973 2971 2968 2965 2963 2961 2958 2958 2957 2956 2956 2956 2956 2957 2956 2959 2961 2963 2965 2967 2971 2975 2978 2981 2983 2987
3037 3034 3031 3027 3023 3019 3014 3008 3003 2996 2990 2984 2981 2980 2977 2974 2970 2967 2964 2961 2958 2955 2953 2951 2949 2949 2947 2947 2946 2946 2947 2947 2948 2949 2951 2954 2958 2961 2966 2971 2974 2976 2981